Tracking 35274 objects as of 11-Sep-2026
HD Live streaming from Space Station
objects crossing your sky now

NOAA 16 DEB

Track NOAA 16 DEB now!
10-day predictions


NORAD ID: 41264
Int'l Code: 2000-055FQ
Launch date: September 21, 2000
Source: United States (US)
Launch site: AIR FORCE WESTERN TEST RANGE (AFWTR)

Note: This is SATELLITE DEBRIS
Your satellite tracking list
Your tracking list is empty




NASA's NSSDC Master Catalog

Two Line Element Set (TLE):
1 41264U 00055FQ  26253.99973796  .00001813  00000-0  74984-3 0  9992
2 41264  98.6213 308.1726 0003513 175.8475 184.2736 14.27886803554073
Source of the keplerian elements: AFSPC